sat.trackr.live / text

‹ back to catalog

STARLINK-30151

NORAD 56827 · 2023-079E

PAYLOAD ACTIVE UNKNOWN

§ Identity

Operator
Country
US
Launch date
2023-06-04
Launch site
AFETR
Launch vehicle
Mass (kg)
RCS (m²)

Purposes: comms

External: N2YO · Heavens-Above · Gunter

§ Orbital elements

Epoch: 2026-05-25T00:45:39.299040Z

Period
94.27 min
Inclination
43.0040°
Eccentricity
0.0001277
Mean motion
15.27580340 rev/d
Perigee alt
482.2 km
Apogee alt
483.9 km
Semi-major
6,861.2 km
B*
5.1528e-6
RAAN
35.9159°
Arg perigee
254.7961°
Mean anomaly
105.2750°
Rev number
16,456

§ Raw data

STARLINK-301511 56827U 23079E   26145.03170485 -.00000120  00000+0  51528-5 0  99942 56827  43.0040  35.9159 0001277 254.7961 105.2750 15.27580340164561

JSON: /api/v1/satellites/56827 · /tle

For live sub-satellite position, see the globe view (requires WebGL).

§ Visibility from observer

Set your observer location to see the next 7 days of passes ≥ 10°. The values pass through the URL so the page stays shareable.

No JS? Fill the form by hand. The geolocation button needs JavaScript.